sat.trackr.live / text

‹ back to catalog

STARLINK-34043

NORAD 63823 · 2025-092V

PAYLOAD ACTIVE UNKNOWN

§ Identity

Operator
Country
US
Launch date
2025-05-04
Launch site
AFETR
Launch vehicle
Mass (kg)
RCS (m²)

Purposes: comms

External: N2YO · Heavens-Above · Gunter

§ Orbital elements

Epoch: 2026-09-20T22:48:30.441312Z

Period
94.27 min
Inclination
43.0000°
Eccentricity
0.0001459
Mean motion
15.27572427 rev/d
Perigee alt
482.1 km
Apogee alt
484.1 km
Semi-major
6,861.2 km
B*
4.2789e-4
RAAN
145.7676°
Arg perigee
267.2810°
Mean anomaly
92.7875°
Rev number
7,852

§ Raw data

STARLINK-340431 63823U 25092V   26263.95035233  .00011528  00000+0  42789-3 0  99982 63823  43.0000 145.7676 0001459 267.2810  92.7875 15.27572427 78524

JSON: /api/v1/satellites/63823 · /tle

For live sub-satellite position, see the globe view (requires WebGL).

§ Visibility from observer

Set your observer location to see the next 7 days of passes ≥ 10°. The values pass through the URL so the page stays shareable.

No JS? Fill the form by hand. The geolocation button needs JavaScript.